This demonstration page uses our WeatherBlox Daily Observations layout. Learn more.

Hourly Observations for October 4, 2019

Temp ( °F °C ) Dew Point ( °F °C ) Humidity (%) Winds ( mph kmh ) Pressure ( in mb ) Visibility ( mi km ) Precip ( " mm )
12:15 am 00:15 Cloudy 51 10.6 45 7.4 81 81 ESE 10 17 30.3 1026 10 16.09344 0 0
12:35 am 00:35 Cloudy 51 10.6 46 7.6 82 82 SE 10 17 30.3 1026 10 16.09344 0 0
12:55 am 00:55 Cloudy 51 10.5 46 7.7 83 83 ESE 9 15 30.3 1026 10 16.09344 0 0
1:15 am 01:15 Cloudy 51 10.7 46 8 84 84 ESE 10 17 30.3 1026 10 16.09344 0 0
1:35 am 01:35 Cloudy 51 10.7 46 8 84 84 ESE 9 15 30.3 1026 10 16.09344 0 0
1:55 am 01:55 Cloudy 51 10.8 47 8.1 84 84 SE 9 15 30.3 1026 10 16.09344 0 0
2:15 am 02:15 Cloudy 51 10.7 47 8.3 85 85 SE 7 11 30.3 1026 10 16.09344 0 0
2:35 am 02:35 Cloudy 51 10.8 47 8.5 86 86 SE 10 17 30.3 1026 10 16.09344 0 0
2:55 am 02:55 Cloudy 51 10.8 47 8.5 86 86 SE 10 17 30.3 1026 10 16.09344 0 0
3:15 am 03:15 Cloudy 51 10.7 47 8.5 86 86 SE 10 17 30.3 1026 10 16.09344 0 0
3:35 am 03:35 Cloudy 51 10.7 47 8.4 86 86 ESE 14 22 30.3 1026 10 16.09344 0 0
3:55 am 03:55 Cloudy 51 10.3 46 8 86 86 SE 12 19 30.27 1025 10 16.09344 0 0
4:15 am 04:15 Cloudy 50 10.2 46 8 86 86 SE 10 17 30.27 1025 10 16.09344 0 0
4:35 am 04:35 Cloudy 50 10.1 46 7.9 86 86 SE 15 24 30.27 1025 10 16.09344 0 0
4:55 am 04:55 Cloudy 50 10.1 46 7.8 86 86 SE 9 15 30.27 1025 10 16.09344 0 0
5:15 am 05:15 Cloudy 50 10.1 46 8 87 87 SE 13 20 30.27 1025 10 16.09344 0 0
5:35 am 05:35 Cloudy 50 10 46 7.8 86 86 SE 14 22 30.27 1025 10 16.09344 0 0
5:55 am 05:55 Cloudy 50 10 46 7.8 86 86 SE 12 19 30.27 1025 10 16.09344 0 0
6:15 am 06:15 Cloudy 50 10 46 7.7 86 86 SE 14 22 30.27 1025 10 16.09344 0 0
6:35 am 06:35 Cloudy 50 9.8 46 7.7 87 87 ESE 15 24 30.27 1025 10 16.09344 0 0
6:55 am 06:55 Cloudy 49 9.7 46 7.7 87 87 ESE 13 20 30.27 1025 10 16.09344 0 0
7:15 am 07:15 Cloudy 49 9.7 46 7.9 89 89 ESE 14 22 30.27 1025 10 16.09344 0 0
7:35 am 07:35 Cloudy 49 9.6 46 7.9 89 89 ESE 14 22 30.27 1025 10 16.09344 0 0
7:55 am 07:55 Cloudy 49 9.5 46 7.8 89 89 ESE 13 20 30.27 1025 10 16.09344 0 0
8:15 am 08:15 Cloudy 49 9.5 46 8 90 90 SE 12 19 30.27 1025 10 16.09344 0 0
8:35 am 08:35 Cloudy 49 9.5 46 8 90 90 SE 12 19 30.27 1025 10 16.09344 0 0
8:55 am 08:55 Cloudy 49 9.2 47 8.1 93 93 SE 14 22 30.27 1025 10 16.09344 0 0
9:15 am 09:15 Cloudy 49 9.3 47 8.3 94 94 SE 16 26 30.27 1025 10 16.09344 0 0
9:35 am 09:35 Cloudy 49 9.5 47 8.3 92 92 SE 15 24 30.27 1025 10 16.09344 0 0
9:55 am 09:55 Cloudy 49 9.6 47 8.5 93 93 SE 15 24 30.27 1025 10 16.09344 0 0
10:15 am 10:15 Cloudy 50 9.8 47 8.5 92 92 SE 14 22 30.24 1024 10 16.09344 0 0
10:35 am 10:35 Cloudy 50 10 48 8.7 92 92 SE 16 26 30.24 1024 10 16.09344 0 0
10:55 am 10:55 Cloudy 50 10.1 48 8.7 91 91 SE 16 26 30.24 1024 10 16.09344 0 0
11:15 am 11:15 Cloudy 51 10.3 48 8.9 91 91 SE 15 24 30.24 1024 10 16.09344 0 0
11:35 am 11:35 Cloudy with Light Rain 51 10.5 48 9.1 91 91 SE 14 22 30.21 1023 10 16.09344 0 0
11:55 am 11:55 Cloudy 51 10.7 49 9.2 91 91 SE 18 30 30.21 1023 10 16.09344 0 0
12:15 pm 12:15 Cloudy 51 10.8 48 9.1 89 89 SE 18 30 30.21 1023 10 16.09344 0 0
12:35 pm 12:35 Cloudy with Mist and Fog 51 10.5 49 9.5 94 94 SSE 15 24 30.18 1022 3 4.828032 0 0
12:55 pm 12:55 Cloudy with Mist and Fog 51 10.4 50 10 97 97 SSE 15 24 30.18 1022 4 6.437376 0 0
1:15 pm 13:15 Cloudy 51 10.5 50 10.1 97 97 SSE 13 20 30.18 1022 7 11.265408 0 0
1:35 pm 13:35 Cloudy with Mist and Fog 51 10.3 50 10 98 98 SSE 16 26 30.18 1022 2.5 4.02336 0 0
1:55 pm 13:55 Cloudy with Mist and Fog 51 10.5 51 10.3 99 99 SSE 14 22 30.12 1020 2.5 4.02336 0 0
2:15 pm 14:15 Cloudy 51 10.5 50 10.2 98 98 SSE 18 30 30.12 1020 7 11.265408 0 0
2:35 pm 14:35 Cloudy 51 10.7 51 10.5 99 99 SSE 18 30 30.12 1020 10 16.09344 0 0
2:55 pm 14:55 Cloudy 51 10.8 50 10.2 96 96 SSE 14 22 30.12 1020 10 16.09344 0 0
3:15 pm 15:15 Cloudy 51 10.7 51 10.3 97 97 SE 18 30 30.09 1019 10 16.09344 0 0
3:35 pm 15:35 Cloudy 51 10.8 51 10.5 98 98 SSE 20 31 30.09 1019 10 16.09344 0 0
3:55 pm 15:55 Cloudy 51 10.6 51 10.3 98 98 SSE 21 33 30.09 1019 10 16.09344 0 0
4:15 pm 16:15 Cloudy 51 10.8 51 10.5 98 98 SE 21 33 30.06 1018 10 16.09344 0 0
4:35 pm 16:35 Cloudy with Mist and Fog 51 10.7 51 10.6 99 99 SSE 15 24 30.06 1018 3 4.828032 0 0
4:55 pm 16:55 Cloudy with Mist and Fog 51 10.7 51 10.6 99 99 SE 17 28 30.06 1018 3 4.828032 0 0
5:15 pm 17:15 Cloudy with Mist and Fog 51 10.7 51 10.7 100 100 SE 21 33 30.03 1017 1.5 2.414016 0 0
5:35 pm 17:35 Cloudy with Mist and Fog 51 10.7 51 10.7 100 100 SE 22 35 30.03 1017 1.75 2.816352 0 0
5:55 pm 17:55 Cloudy with Mist and Fog 51 10.7 51 10.7 100 100 SE 21 33 30 1016 2 3.218688 0 0
6:15 pm 18:15 Cloudy with Light Rain 51 10.6 51 10.6 100 100 SE 22 35 30 1016 3 4.828032 0.01 0.254
6:35 pm 18:35 Cloudy with Light Rain 51 10.7 51 10.7 100 100 SSE 20 31 29.97 1015 7 11.265408 0.01 0.254
6:55 pm 18:55 Cloudy 51 10.7 51 10.7 100 100 SSE 18 30 29.97 1015 10 16.09344 0.02 0.508
7:15 pm 19:15 Cloudy with Light Drizzle 51 10.7 51 10.7 100 100 SSE 23 37 29.97 1015 10 16.09344 0 0
7:35 pm 19:35 Cloudy 51 10.8 51 10.8 100 100 SSE 17 28 30 1016 10 16.09344 0 0
7:55 pm 19:55 Cloudy 51 10.7 51 10.7 100 100 SSE 15 24 30 1016 10 16.09344 0 0
8:15 pm 20:15 Cloudy with Mist and Fog 51 10.7 51 10.7 100 100 SSE 15 24 30 1016 5 8.04672 0 0
8:35 pm 20:35 Cloudy with Mist and Fog 51 10.6 51 10.6 100 100 SSE 21 33 30 1016 2 3.218688 0 0
8:55 pm 20:55 Cloudy with Mist and Fog 51 10.7 51 10.7 100 100 SSE 16 26 29.97 1015 1.75 2.816352 0 0
9:10 pm 21:10 Cloudy with Mist and Fog 51 10.8 51 10.8 100 100 SSE 20 31 29.97 1015 1.75 2.816352 0 0
9:35 pm 21:35 Cloudy with Mist and Fog 52 11.3 52 11.3 100 100 SSE 18 30 29.94 1014 2 3.218688 0 0
9:55 pm 21:55 Cloudy with Mist and Fog 53 11.4 53 11.4 100 100 SSE 16 26 29.94 1014 1.75 2.816352 0 0
10:15 pm 22:15 Cloudy with Mist and Fog 53 11.5 53 11.5 100 100 SSE 15 24 29.94 1014 1.75 2.816352 0 0
10:35 pm 22:35 Cloudy with Mist and Fog 53 11.7 53 11.7 100 100 SSE 12 19 29.94 1014 1.75 2.816352 0 0
10:55 pm 22:55 Cloudy with Mist and Fog 54 12 54 12 100 100 SSE 16 26 29.88 1012 2 3.218688 0 0
11:15 pm 23:15 Cloudy with Mist and Fog 54 12.1 54 12.1 100 100 SSE 16 26 29.88 1012 4 6.437376 0 0
11:35 pm 23:35 Cloudy with Mist and Fog 55 12.5 55 12.5 100 100 SSE 10 17 29.88 1012 5 8.04672 0 0
11:55 pm 23:55 Cloudy with Mist and Fog 55 13 55 13 100 100 SSE 13 20 29.88 1012 2.5 4.02336 0 0

Powered by AerisWeather